{"data":{"norad_id":56488,"epoch":"2026-05-24T18:04:58.357344Z","epoch_age_seconds":93575,"freshness":"FRESH","line1":"1 56488U 23064AS  26144.75345321  .00000499  00000+0  49583-4 0  9997","line2":"2 56488  69.9993 272.7684 0003022 270.8153  89.2660 14.98334184167625","mean_motion":14.98334184,"eccentricity":0.0003022,"inclination_deg":69.9993,"raan_deg":272.7684,"arg_perigee_deg":270.8153,"mean_anomaly_deg":89.266,"bstar":4.9583e-5,"rev_number":16762,"period_min":96.106730753198,"perigee_km":569.94260791808,"apogee_km":574.14329668125,"semimajor_km":6950.1799522997,"source":"CELESTRAK","updated_at":"2026-05-25T13:38:18.074858Z"}}